Time,TemperatureF,DewpointF,PressureIn,WindDirection,WindDirectionDegrees,WindSpeedMPH,WindSpeedGustMPH,Humidity,HourlyPrecipIn,Conditions,Clouds,dailyrainin,SoftwareType,DateUTC
2013-03-13 00:02:00,28.0,24.0,30.18,SSW,200,0.0,2.0,85,0.00,,,0.12,,2013-03-13 06:02:00,
2013-03-13 00:12:00,28.0,24.0,30.18,SSW,200,0.0,2.0,85,0.00,,,0.12,,2013-03-13 06:12:00,
2013-03-13 00:23:00,28.0,24.0,30.17,SSW,200,0.0,2.0,86,0.00,,,0.12,,2013-03-13 06:23:00,
2013-03-13 00:32:00,28.0,25.0,30.17,SSW,201,0.0,3.0,87,0.00,,,0.12,,2013-03-13 06:32:00,
2013-03-13 00:42:00,28.0,25.0,30.17,SSW,201,0.0,3.0,87,0.00,,,0.12,,2013-03-13 06:42:00,
2013-03-13 00:52:00,28.0,25.0,30.17,SSW,200,1.0,2.0,88,0.00,,,0.12,,2013-03-13 06:52:00,
2013-03-13 01:02:00,30.0,26.0,30.16,NNW,329,0.0,8.0,86,0.00,,,0.12,,2013-03-13 07:02:00,
2013-03-13 01:12:00,30.0,26.0,30.16,NNW,329,0.0,8.0,86,0.00,,,0.12,,2013-03-13 07:12:00,
2013-03-13 01:22:00,29.0,25.0,30.15,NNW,327,1.0,4.0,84,0.00,,,0.12,,2013-03-13 07:22:00,
2013-03-13 01:32:00,28.0,24.0,30.16,NNW,328,0.0,2.0,84,0.00,,,0.12,,2013-03-13 07:32:00,
2013-03-13 01:42:00,28.0,24.0,30.16,NNW,328,0.0,2.0,84,0.00,,,0.12,,2013-03-13 07:42:00,
2013-03-13 01:53:00,28.0,24.0,30.15,NNW,328,0.0,2.0,86,0.00,,,0.12,,2013-03-13 07:53:00,
2013-03-13 02:03:00,28.0,25.0,30.14,NNW,329,2.0,3.0,87,0.00,,,0.12,,2013-03-13 08:03:00,
2013-03-13 02:12:00,28.0,25.0,30.14,NNW,329,2.0,3.0,87,0.00,,,0.12,,2013-03-13 08:12:00,
2013-03-13 02:22:00,28.0,24.0,30.14,NNW,329,0.0,3.0,86,0.00,,,0.12,,2013-03-13 08:22:00,
2013-03-13 02:32:00,28.0,24.0,30.15,NNW,327,0.0,3.0,86,0.00,,,0.12,,2013-03-13 08:32:00,
2013-03-13 02:43:00,28.0,24.0,30.15,NNW,327,0.0,3.0,86,0.00,,,0.12,,2013-03-13 08:43:00,
2013-03-13 02:53:00,28.0,24.0,30.13,NNW,330,2.0,3.0,85,0.00,,,0.12,,2013-03-13 08:53:00,
2013-03-13 03:02:00,28.0,24.0,30.13,NNW,330,0.0,2.0,85,0.00,,,0.12,,2013-03-13 09:02:00,
2013-03-13 03:12:00,28.0,24.0,30.13,NNW,330,0.0,2.0,85,0.00,,,0.12,,2013-03-13 09:12:00,
2013-03-13 03:22:00,27.0,23.0,30.12,NNW,330,0.0,3.0,85,0.00,,,0.12,,2013-03-13 09:22:00,
2013-03-13 03:32:00,27.0,23.0,30.11,NNW,330,1.0,1.0,86,0.00,,,0.12,,2013-03-13 09:32:00,
2013-03-13 03:42:00,27.0,23.0,30.11,NNW,330,1.0,1.0,86,0.00,,,0.12,,2013-03-13 09:42:00,
2013-03-13 03:52:00,27.0,24.0,30.11,NNW,331,0.0,2.0,87,0.00,,,0.12,,2013-03-13 09:52:00,
2013-03-13 04:02:00,27.0,24.0,30.11,NNW,330,0.0,2.0,87,0.00,,,0.12,,2013-03-13 10:02:00,
2013-03-13 04:12:00,27.0,24.0,30.11,NNW,330,0.0,2.0,87,0.00,,,0.12,,2013-03-13 10:12:00,
2013-03-13 04:22:00,27.0,24.0,30.10,NNW,330,0.0,2.0,87,0.00,,,0.12,,2013-03-13 10:22:00,
2013-03-13 04:32:00,27.0,24.0,30.12,NNW,330,0.0,2.0,87,0.00,,,0.12,,2013-03-13 10:32:00,
2013-03-13 04:42:00,27.0,24.0,30.12,NNW,330,0.0,2.0,87,0.00,,,0.12,,2013-03-13 10:42:00,
2013-03-13 04:52:00,27.0,23.0,30.13,NNW,331,0.0,5.0,86,0.00,,,0.12,,2013-03-13 10:52:00,
2013-03-13 05:02:00,26.0,22.0,30.14,NNW,331,2.0,2.0,86,0.00,,,0.12,,2013-03-13 11:02:00,
2013-03-13 05:12:00,26.0,22.0,30.14,NNW,331,2.0,2.0,86,0.00,,,0.12,,2013-03-13 11:12:00,
2013-03-13 05:22:00,26.0,23.0,30.12,NNW,331,2.0,3.0,87,0.00,,,0.12,,2013-03-13 11:22:00,
2013-03-13 05:32:00,26.0,23.0,30.14,NNW,329,0.0,3.0,88,0.00,,,0.12,,2013-03-13 11:32:00,
2013-03-13 05:42:00,26.0,23.0,30.14,NNW,329,0.0,3.0,88,0.00,,,0.12,,2013-03-13 11:42:00,
2013-03-13 05:52:00,26.0,23.0,30.14,NNW,329,2.0,3.0,88,0.00,,,0.12,,2013-03-13 11:52:00,
2013-03-13 06:02:00,27.0,24.0,30.15,NNW,329,0.0,3.0,88,0.00,,,0.12,,2013-03-13 12:02:00,
2013-03-13 06:12:00,27.0,24.0,30.15,NNW,329,0.0,3.0,88,0.00,,,0.12,,2013-03-13 12:12:00,
2013-03-13 06:22:00,27.0,24.0,30.15,NNW,329,2.0,4.0,87,0.00,,,0.12,,2013-03-13 12:22:00,
2013-03-13 06:32:00,28.0,25.0,30.14,NNW,329,0.0,3.0,87,0.00,,,0.12,,2013-03-13 12:32:00,
2013-03-13 06:42:00,28.0,25.0,30.14,NNW,329,0.0,3.0,87,0.00,,,0.12,,2013-03-13 12:42:00,
2013-03-13 06:53:00,28.0,25.0,30.14,NW,306,0.0,4.0,87,0.00,,,0.12,,2013-03-13 12:53:00,
2013-03-13 07:02:00,28.0,24.0,30.14,NW,306,1.0,3.0,85,0.00,,,0.12,,2013-03-13 13:02:00,
2013-03-13 07:12:00,28.0,24.0,30.14,NW,306,1.0,3.0,85,0.00,,,0.12,,2013-03-13 13:12:00,
2013-03-13 07:22:00,29.0,25.0,30.15,NW,306,0.0,4.0,83,0.00,,,0.12,,2013-03-13 13:22:00,
2013-03-13 07:33:00,30.0,25.0,30.15,NW,306,0.0,3.0,81,0.00,,,0.12,,2013-03-13 13:33:00,
2013-03-13 07:42:00,30.0,25.0,30.15,NW,306,0.0,3.0,81,0.00,,,0.12,,2013-03-13 13:42:00,
2013-03-13 07:52:00,30.0,25.0,30.15,NW,308,0.0,3.0,80,0.00,,,0.12,,2013-03-13 13:52:00,
2013-03-13 08:02:00,30.0,25.0,30.16,NW,308,1.0,3.0,81,0.00,,,0.12,,2013-03-13 14:02:00,
2013-03-13 08:12:00,30.0,25.0,30.16,NW,308,1.0,3.0,81,0.00,,,0.12,,2013-03-13 14:12:00,
2013-03-13 08:22:00,31.0,26.0,30.17,NW,308,1.0,3.0,81,0.00,,,0.12,,2013-03-13 14:22:00,
2013-03-13 08:33:00,32.0,26.0,30.17,NW,308,1.0,5.0,77,0.00,,,0.12,,2013-03-13 14:33:00,
2013-03-13 08:42:00,32.0,26.0,30.17,NW,308,1.0,5.0,77,0.00,,,0.12,,2013-03-13 14:42:00,
2013-03-13 08:53:00,33.0,27.0,30.19,NW,308,3.0,3.0,77,0.00,,,0.12,,2013-03-13 14:53:00,
2013-03-13 09:03:00,35.0,27.0,30.19,NW,306,0.0,3.0,72,0.00,,,0.12,,2013-03-13 15:03:00,
2013-03-13 09:12:00,35.0,27.0,30.19,NW,306,0.0,3.0,72,0.00,,,0.12,,2013-03-13 15:12:00,
2013-03-13 09:22:00,36.0,26.0,30.19,NW,311,3.0,4.0,66,0.00,,,0.12,,2013-03-13 15:22:00,
2013-03-13 09:32:00,37.0,27.0,30.21,NW,311,1.0,6.0,67,0.00,,,0.12,,2013-03-13 15:32:00,
2013-03-13 09:42:00,37.0,27.0,30.21,NW,311,1.0,6.0,67,0.00,,,0.12,,2013-03-13 15:42:00,
2013-03-13 09:52:00,37.0,27.0,30.21,NW,312,0.0,3.0,68,0.00,,,0.12,,2013-03-13 15:52:00,
2013-03-13 10:02:00,39.0,29.0,30.20,NW,312,0.0,4.0,66,0.01,,,0.13,,2013-03-13 16:02:00,
2013-03-13 10:12:00,39.0,29.0,30.20,NW,312,0.0,4.0,66,0.01,,,0.13,,2013-03-13 16:12:00,
2013-03-13 10:22:00,41.0,29.0,30.22,NW,313,0.0,6.0,62,0.01,,,0.13,,2013-03-13 16:22:00,
2013-03-13 10:32:00,43.0,28.0,30.22,NNW,346,4.0,6.0,54,0.01,,,0.13,,2013-03-13 16:32:00,
2013-03-13 10:42:00,43.0,28.0,30.22,NNW,346,4.0,6.0,54,0.01,,,0.13,,2013-03-13 16:42:00,
2013-03-13 10:52:00,44.0,27.0,30.23,NNW,333,4.0,9.0,51,0.01,,,0.13,,2013-03-13 16:52:00,
2013-03-13 11:02:00,47.0,27.0,30.22,NNW,334,0.0,3.0,45,0.00,,,0.13,,2013-03-13 17:02:00,
2013-03-13 11:12:00,47.0,27.0,30.22,NNW,334,0.0,3.0,45,0.00,,,0.13,,2013-03-13 17:12:00,
2013-03-13 11:22:00,49.0,28.0,30.23,NNW,344,1.0,3.0,44,0.00,,,0.13,,2013-03-13 17:22:00,
2013-03-13 11:32:00,50.0,28.0,30.22,NE,34,2.0,5.0,43,0.00,,,0.13,,2013-03-13 17:32:00,
2013-03-13 11:42:00,50.0,28.0,30.22,NE,34,2.0,5.0,43,0.00,,,0.13,,2013-03-13 17:42:00,
2013-03-13 11:53:00,50.0,27.0,30.22,South,181,2.0,5.0,40,0.00,,,0.13,,2013-03-13 17:53:00,
2013-03-13 12:02:00,51.0,29.0,30.22,SW,230,0.0,5.0,43,0.00,,,0.13,,2013-03-13 18:02:00,
2013-03-13 12:12:00,51.0,29.0,30.22,SW,230,0.0,5.0,43,0.00,,,0.13,,2013-03-13 18:12:00,
2013-03-13 12:22:00,52.0,30.0,30.22,SE,138,3.0,5.0,43,0.00,,,0.13,,2013-03-13 18:22:00,
2013-03-13 12:33:00,51.0,28.0,30.23,SW,231,1.0,4.0,41,0.00,,,0.12,,2013-03-13 18:33:00,
2013-03-13 12:42:00,51.0,28.0,30.23,SW,231,1.0,4.0,41,0.00,,,0.12,,2013-03-13 18:42:00,
2013-03-13 12:52:00,52.0,31.0,30.23,SW,231,1.0,5.0,45,0.00,,,0.12,,2013-03-13 18:52:00,
2013-03-13 13:02:00,50.0,30.0,30.22,South,171,1.0,6.0,46,0.00,,,0.10,,2013-03-13 19:02:00,
2013-03-13 13:12:00,50.0,30.0,30.22,South,171,1.0,6.0,46,0.00,,,0.10,,2013-03-13 19:12:00,
2013-03-13 13:22:00,52.0,31.0,30.22,NNE,18,0.0,7.0,45,0.00,,,0.09,,2013-03-13 19:22:00,
2013-03-13 13:32:00,54.0,31.0,30.21,SSW,192,4.0,7.0,42,0.00,,,0.08,,2013-03-13 19:32:00,
2013-03-13 13:43:00,54.0,31.0,30.21,SSW,192,4.0,7.0,42,0.00,,,0.08,,2013-03-13 19:43:00,
2013-03-13 13:53:00,54.0,29.0,30.20,South,190,3.0,5.0,38,0.00,,,0.08,,2013-03-13 19:53:00,
2013-03-13 14:02:00,55.0,32.0,30.20,SW,221,0.0,6.0,41,0.00,,,0.07,,2013-03-13 20:02:00,
2013-03-13 14:12:00,55.0,32.0,30.20,SW,221,0.0,6.0,41,0.00,,,0.07,,2013-03-13 20:12:00,
2013-03-13 14:22:00,55.0,29.0,30.19,SSE,159,5.0,7.0,37,0.00,,,0.06,,2013-03-13 20:22:00,
2013-03-13 14:32:00,54.0,29.0,30.18,South,188,0.0,7.0,38,0.00,,,0.06,,2013-03-13 20:32:00,
2013-03-13 14:42:00,54.0,29.0,30.18,South,188,0.0,7.0,38,0.00,,,0.06,,2013-03-13 20:42:00,
2013-03-13 14:52:00,55.0,32.0,30.17,WSW,248,2.0,5.0,41,0.00,,,0.05,,2013-03-13 20:52:00,
2013-03-13 15:02:00,55.0,32.0,30.18,SSW,207,0.0,5.0,41,0.00,,,0.04,,2013-03-13 21:02:00,
2013-03-13 15:12:00,55.0,32.0,30.18,SSW,207,0.0,5.0,41,0.00,,,0.04,,2013-03-13 21:12:00,
2013-03-13 15:22:00,55.0,30.0,30.17,West,273,0.0,5.0,38,0.00,,,0.04,,2013-03-13 21:22:00,
2013-03-13 15:33:00,57.0,32.0,30.17,ESE,122,4.0,4.0,39,0.00,,,0.03,,2013-03-13 21:33:00,
2013-03-13 15:42:00,57.0,32.0,30.17,ESE,122,4.0,4.0,39,0.00,,,0.03,,2013-03-13 21:42:00,
2013-03-13 15:52:00,58.0,31.0,30.17,South,169,0.0,5.0,36,0.00,,,0.02,,2013-03-13 21:52:00,
2013-03-13 16:02:00,59.0,31.0,30.17,ESE,123,1.0,3.0,35,0.00,,,0.02,,2013-03-13 22:02:00,
2013-03-13 16:12:00,59.0,31.0,30.17,ESE,123,1.0,3.0,35,0.00,,,0.02,,2013-03-13 22:12:00,
2013-03-13 16:22:00,59.0,31.0,30.16,ENE,67,1.0,3.0,35,0.00,,,0.02,,2013-03-13 22:22:00,
2013-03-13 16:32:00,58.0,31.0,30.17,NNE,33,0.0,6.0,35,0.00,,,0.01,,2013-03-13 22:32:00,
2013-03-13 16:42:00,58.0,31.0,30.17,NNE,33,0.0,6.0,35,0.00,,,0.01,,2013-03-13 22:42:00,
2013-03-13 16:52:00,58.0,31.0,30.17,NE,37,0.0,2.0,35,0.00,,,0.01,,2013-03-13 22:52:00,
2013-03-13 17:02:00,58.0,30.0,30.17,NE,34,3.0,3.0,34,0.00,,,0.01,,2013-03-13 23:02:00,
2013-03-13 17:12:00,58.0,30.0,30.17,NE,34,3.0,3.0,34,0.00,,,0.01,,2013-03-13 23:12:00,
2013-03-13 17:22:00,59.0,28.0,30.17,NE,37,0.0,5.0,31,0.00,,,0.01,,2013-03-13 23:22:00,
2013-03-13 17:32:00,58.0,30.0,30.16,NE,34,3.0,7.0,34,0.00,,,0.01,,2013-03-13 23:32:00,
2013-03-13 17:42:00,58.0,30.0,30.16,NE,34,3.0,7.0,34,0.00,,,0.01,,2013-03-13 23:42:00,
2013-03-13 17:52:00,57.0,30.0,30.17,NE,48,0.0,5.0,36,0.01,,,0.02,,2013-03-13 23:52:00,
2013-03-13 18:02:00,56.0,31.0,30.16,NE,48,4.0,4.0,38,0.01,,,0.02,,2013-03-14 00:02:00,
2013-03-13 18:12:00,56.0,31.0,30.16,NE,48,4.0,4.0,38,0.01,,,0.02,,2013-03-14 00:12:00,
2013-03-13 18:22:00,56.0,29.0,30.16,NE,39,0.0,6.0,36,0.01,,,0.02,,2013-03-14 00:22:00,
2013-03-13 18:32:00,56.0,29.0,30.17,NE,38,0.0,3.0,35,0.01,,,0.02,,2013-03-14 00:32:00,
2013-03-13 18:42:00,56.0,29.0,30.17,NE,38,0.0,3.0,35,0.01,,,0.02,,2013-03-14 00:42:00,
2013-03-13 18:52:00,55.0,29.0,30.17,NE,38,0.0,3.0,37,0.00,,,0.02,,2013-03-14 00:52:00,
2013-03-13 19:02:00,53.0,31.0,30.16,NE,38,0.0,1.0,42,0.00,,,0.02,,2013-03-14 01:02:00,
2013-03-13 19:12:00,53.0,31.0,30.16,NE,38,0.0,1.0,42,0.00,,,0.02,,2013-03-14 01:12:00,
2013-03-13 19:22:00,53.0,31.0,30.16,NE,36,0.0,2.0,42,0.00,,,0.02,,2013-03-14 01:22:00,
2013-03-13 19:32:00,50.0,31.0,30.16,NE,36,0.0,1.0,47,0.00,,,0.02,,2013-03-14 01:32:00,
2013-03-13 19:42:00,50.0,31.0,30.16,NE,36,0.0,1.0,47,0.00,,,0.02,,2013-03-14 01:42:00,
2013-03-13 19:53:00,50.0,32.0,30.16,NE,36,1.0,1.0,50,0.00,,,0.02,,2013-03-14 01:53:00,
2013-03-13 20:02:00,47.0,32.0,30.17,NE,36,1.0,1.0,56,0.00,,,0.02,,2013-03-14 02:02:00,
2013-03-13 20:12:00,47.0,32.0,30.17,NE,36,1.0,1.0,56,0.00,,,0.02,,2013-03-14 02:12:00,
2013-03-13 20:22:00,47.0,31.0,30.18,NE,36,2.0,2.0,54,0.00,,,0.02,,2013-03-14 02:22:00,
2013-03-13 20:32:00,46.0,32.0,30.18,NE,37,0.0,2.0,57,0.00,,,0.02,,2013-03-14 02:32:00,
2013-03-13 20:42:00,46.0,32.0,30.18,NE,37,0.0,2.0,57,0.00,,,0.02,,2013-03-14 02:42:00,
2013-03-13 20:52:00,46.0,32.0,30.18,NE,37,0.0,2.0,57,0.00,,,0.02,,2013-03-14 02:52:00,
2013-03-13 21:02:00,47.0,31.0,30.18,NE,36,0.0,2.0,54,0.00,,,0.02,,2013-03-14 03:02:00,
2013-03-13 21:12:00,47.0,31.0,30.18,NE,36,0.0,2.0,54,0.00,,,0.02,,2013-03-14 03:12:00,
2013-03-13 21:23:00,47.0,32.0,30.18,NE,36,0.0,2.0,55,0.00,,,0.02,,2013-03-14 03:23:00,
2013-03-13 21:32:00,47.0,31.0,30.19,NE,37,1.0,1.0,53,0.00,,,0.02,,2013-03-14 03:32:00,
2013-03-13 21:42:00,47.0,31.0,30.19,NE,37,1.0,1.0,53,0.00,,,0.02,,2013-03-14 03:42:00,
2013-03-13 21:53:00,46.0,28.0,30.19,NE,36,0.0,2.0,49,0.00,,,0.02,,2013-03-14 03:53:00,
2013-03-13 22:12:00,46.0,32.0,30.19,NE,36,1.0,2.0,57,0.00,,,0.02,,2013-03-14 04:12:00,
2013-03-13 22:22:00,45.0,32.0,30.19,NE,36,0.0,3.0,59,0.00,,,0.02,,2013-03-14 04:22:00,
2013-03-13 22:30:00,46.0,29.0,30.19,NE,36,0.0,3.0,52,0.00,,,0.02,,2013-03-14 04:30:00,
2013-03-13 22:32:00,46.0,29.0,30.19,NE,36,0.0,1.0,52,0.00,,,0.02,,2013-03-14 04:32:00,
2013-03-13 22:42:00,46.0,29.0,30.19,NE,36,0.0,1.0,52,0.00,,,0.02,,2013-03-14 04:42:00,
2013-03-13 22:52:00,46.0,29.0,30.19,NE,36,0.0,3.0,52,0.00,,,0.02,,2013-03-14 04:52:00,
2013-03-13 23:02:00,46.0,29.0,30.19,NE,36,0.0,3.0,52,0.00,,,0.02,,2013-03-14 05:02:00,
2013-03-13 23:12:00,46.0,29.0,30.19,NE,36,0.0,3.0,52,0.00,,,0.02,,2013-03-14 05:12:00,
2013-03-13 23:22:00,46.0,29.0,30.19,NE,36,0.0,3.0,52,0.00,,,0.02,,2013-03-14 05:22:00,